Flag for Germany Weather past 2 weeks in Biberach an der Riss, Baden-Württemberg, Germany

Now
54 °F

Broken clouds.


Feels Like: 52 °F
Forecast: 41 / 60 °F
Wind: 6 mph from Northeast

Location: Laupheim Airport

Current Time: May 26, 2015 at 11:58:57 AM

Latest Report: May 26, 2015 at 11:20 AM


Visibility: N/A

Pressure: 30.04 "Hg

Humidity: 67%

Dew point: 43 °F

Location of Biberach an der RissLocation

Historic Weather in Biberach an der Riss — Graph

°F

Biberach an der Riss temperature yesterday

Maximum temperature yesterday: 64 °F (at 1:20 PM)
Minimum temperature yesterday: 52 °F (at 4:20 AM)
Average temperature yesterday: 56 °F

Past Weeks' High & Low Weather Summary

 TemperatureHumidityPressure
High81 °F (May 12, 4:20 PM)100% (May 15, 7:20 AM)30.30 "Hg (May 15, 7:20 AM)
Low39 °F (May 22, 4:20 AM)34% (May 12, 2:20 PM)29.77 "Hg (May 18, 5:20 PM)
Average56 °F76%30.05 "Hg
* Reported May 11 10:20 AM — May 26 10:20 AM, Biberach an der Riss, Weather by CustomWeather, © 2015

Note: Actual official high and low records may vary slightly from our data, if they occured in-between our weather recording intervals... More about our weather records

Advertising

Biberach an der Riss weather history for previous 24 hours

 ConditionsComfort  
Time TempWeatherWind HumidityBarometerVisibility
10:20 AM
Tue, May 26
52 °FBroken clouds.7 mph82%30.01 "HgN/A
9:20 AM52 °FBroken clouds.3 mph88%30.01 "Hg5 mi
8:20 AM50 °FLight rain. Broken clouds.3 mph94%29.98 "Hg4 mi
7:20 AM50 °FLight rain. Fog.3 mph100%29.98 "Hg2 mi
6:20 AM50 °FSprinkles. Fog.3 mph100%29.95 "Hg3 mi
5:20 AM50 °FFog.2 mph100%29.95 "Hg2 mi
4:20 AM50 °FPartly cloudy.2 mph100%29.95 "Hg4 mi
3:20 AM50 °FLight rain. Fog.5 mph100%29.95 "Hg3 mi
2:20 AM52 °FLight rain. Fog.7 mph94%29.95 "Hg3 mi
1:20 AM52 °FLight rain. Mostly cloudy.5 mph94%29.95 "Hg5 mi
12:20 AM52 °FLight rain. Overcast.5 mph94%29.95 "Hg4 mi
11:20 PM
Mon, May 25
52 °FDrizzle. Mostly cloudy.5 mph94%29.95 "Hg4 mi
10:20 PM52 °FMostly cloudy.1 mph94%29.95 "HgN/A
9:20 PM54 °FOvercast.5 mph94%29.95 "Hg4 mi
8:20 PM54 °FLight rain. Overcast.5 mph94%29.95 "Hg4 mi
7:20 PM54 °FCool.7 mph94%29.95 "Hg4 mi
6:20 PM55 °FCool.6 mph82%29.92 "Hg4 mi
5:20 PM59 °FCool.6 mph68%29.92 "Hg6 mi
4:20 PM61 °FCool.5 mph63%29.92 "Hg6 mi
3:20 PM61 °FCool.10 mph63%29.95 "HgN/A
2:20 PM63 °FMild.3 mph56%29.95 "HgN/A
1:20 PM64 °FMild.6 mph56%29.95 "HgN/A
12:20 PM63 °FMild.6 mph64%29.98 "HgN/A
11:20 AM61 °FCool.5 mph68%29.98 "Hg6 mi
Weather by CustomWeather, © 2015

See weather overviewHow to use our weather pages